| time (UTC) | temp F | wind direction | speed knots | gust knots | rain 1hr in | rain 24hr in | rain mn in | humidity % | barometer mb |
| 20260505070031 | 59 | 62 | 0.0 | 1.7 | 0.00 | 0.00 | 0.00 | 63 | 1011.0 |
| 20260505064529 | 59 | 78 | 0.0 | 1.7 | 0.00 | 0.00 | 0.00 | 63 | 1011.0 |
| 20260505063042 | 58 | 15 | 0.0 | 1.7 | 0.00 | 0.00 | 0.00 | 63 | 1011.1 |
| 20260505061533 | 59 | 107 | 0.0 | 1.7 | 0.00 | 0.00 | 0.00 | 62 | 1010.9 |
| 20260505060024 | 59 | 108 | 0.0 | 0.9 | 0.00 | 0.00 | 0.00 | 61 | 1011.0 |
| 20260505054534 | 60 | 108 | 0.0 | 1.7 | 0.00 | 0.00 | 0.00 | 61 | 1011.1 |
| 20260505053022 | 60 | 113 | 0.0 | 1.7 | 0.00 | 0.00 | 0.00 | 59 | 1011.2 |
| 20260505051535 | 60 | 115 | 0.0 | 1.7 | 0.00 | 0.00 | 0.00 | 61 | 1011.2 |
| 20260505041529 | 60 | 111 | 0.0 | 1.7 | 0.00 | 0.00 | 0.00 | 58 | 1011.2 |
| 20260505040014 | 61 | 111 | 0.0 | 0.0 | 0.00 | 0.00 | 0.00 | 57 | 1010.9 |
| 20260505034512 | 62 | 111 | 0.0 | 1.7 | 0.00 | 0.00 | 0.00 | 55 | 1011.0 |
| 20260505033011 | 62 | 91 | 0.0 | 0.0 | 0.00 | 0.00 | 0.00 | 54 | 1010.9 |
| 20260505031523 | 62 | 108 | 0.0 | 1.7 | 0.00 | 0.00 | 0.00 | 54 | 1010.8 |
| 20260505030009 | 63 | 88 | 0.0 | 1.7 | 0.00 | 0.00 | 0.00 | 54 | 1010.8 |
| 20260505024508 | 63 | 107 | 0.0 | 1.7 | 0.00 | 0.00 | 0.00 | 53 | 1010.8 |
| 20260505023008 | 63 | 104 | 0.0 | 1.7 | 0.00 | 0.00 | 0.00 | 53 | 1010.8 |
| 20260505021508 | 63 | 120 | 0.0 | 1.7 | 0.00 | 0.00 | 0.00 | 53 | 1010.8 |
| 20260505020007 | 63 | 121 | 0.9 | 1.7 | 0.00 | 0.00 | 0.00 | 54 | 1010.7 |
| 20260505014512 | 64 | 144 | 0.0 | 1.7 | 0.00 | 0.00 | 0.00 | 54 | 1010.5 |
| 20260505013006 | 64 | 141 | 0.0 | 1.7 | 0.00 | 0.00 | 0.00 | 54 | 1010.6 |
| 20260505011509 | 65 | 127 | 0.0 | 1.7 | 0.00 | 0.00 | 0.00 | 53 | 1010.5 |
| 20260505010012 | 65 | 116 | 0.0 | 1.7 | 0.00 | 0.00 | 0.00 | 53 | 1010.3 |
| 20260505004505 | 66 | 134 | 0.9 | 2.6 | 0.00 | 0.00 | 0.00 | 52 | 1010.1 |
| 20260505003004 | 66 | 125 | 0.0 | 1.7 | 0.00 | 0.00 | 0.00 | 52 | 1010.2 |
| 20260505001504 | 66 | 116 | 0.9 | 3.5 | 0.00 | 0.00 | 0.00 | 51 | 1010.1 |
| 20260505000005 | 67 | 135 | 0.9 | 2.6 | 0.00 | 0.00 | 0.00 | 48 | 1010.1 |
| 20260504234502 | 69 | 234 | 0.0 | 1.7 | 0.00 | 0.00 | 0.00 | 46 | 1010.1 |
| 20260504233002 | 70 | 122 | 0.0 | 3.5 | 0.00 | 0.00 | 0.00 | 44 | 1009.9 |
| 20260504231502 | 71 | 108 | 0.9 | 6.1 | 0.00 | 0.00 | 0.00 | 43 | 1009.9 |
| 20260504230002 | 71 | 97 | 1.7 | 5.2 | 0.00 | 0.00 | 0.00 | 42 | 1010.1 |
| 20260504224503 | 72 | 108 | 0.9 | 7.0 | 0.00 | 0.00 | 0.00 | 40 | 1010.0 |
| 20260504223110 | 72 | 110 | 2.6 | 7.8 | 0.00 | 0.00 | 0.00 | 39 | 1010.0 |
| 20260504221559 | 72 | 92 | 3.5 | 12.2 | 0.00 | 0.00 | 0.00 | 39 | 1009.8 |
| 20260504220101 | 73 | 91 | 2.6 | 10.4 | 0.00 | 0.00 | 0.00 | 39 | 1009.8 |
| 20260504214557 | 74 | 143 | 3.5 | 7.8 | 0.00 | 0.00 | 0.00 | 37 | 1009.9 |
| 20260504213101 | 76 | 76 | 0.9 | 4.3 | 0.00 | 0.00 | 0.00 | 35 | 1009.9 |
| 20260504211559 | 76 | 76 | 0.9 | 6.1 | 0.00 | 0.00 | 0.00 | 34 | 1009.9 |
| 20260504210101 | 76 | 109 | 0.0 | 3.5 | 0.00 | 0.00 | 0.00 | 34 | 1009.9 |
| 20260504204554 | 76 | 67 | 1.7 | 7.8 | 0.00 | 0.00 | 0.00 | 33 | 1010.0 |
| 20260504203050 | 76 | 101 | 0.9 | 5.2 | 0.00 | 0.00 | 0.00 | 34 | 1010.1 |
| 20260504201549 | 76 | 102 | 0.9 | 5.2 | 0.00 | 0.00 | 0.00 | 34 | 1010.3 |
| 20260504200057 | 76 | 269 | 0.0 | 4.3 | 0.00 | 0.00 | 0.00 | 35 | 1010.5 |
| 20260504194542 | 76 | 102 | 0.0 | 5.2 | 0.00 | 0.00 | 0.00 | 35 | 1010.7 |
| 20260504193044 | 76 | 228 | 1.7 | 4.3 | 0.00 | 0.00 | 0.00 | 35 | 1011.0 |
| 20260504191540 | 75 | 337 | 1.7 | 5.2 | 0.00 | 0.00 | 0.00 | 37 | 1011.2 |
| 20260504190037 | 76 | 93 | 1.7 | 5.2 | 0.00 | 0.00 | 0.00 | 36 | 1011.5 |
| 20260504184538 | 75 | 77 | 0.9 | 4.3 | 0.00 | 0.00 | 0.00 | 36 | 1011.8 |
| 20260504183036 | 75 | 110 | 0.9 | 4.3 | 0.00 | 0.00 | 0.00 | 37 | 1011.9 |
| 20260504181531 | 75 | 27 | 0.0 | 7.8 | 0.00 | 0.00 | 0.00 | 35 | 1012.0 |
| 20260504180028 | 74 | 245 | 0.9 | 4.3 | 0.00 | 0.00 | 0.00 | 34 | 1012.4 |
| 20260504174524 | 75 | 74 | 0.9 | 3.5 | 0.00 | 0.00 | 0.00 | 34 | 1012.5 |
| 20260504173023 | 74 | 108 | 0.9 | 4.3 | 0.00 | 0.00 | 0.00 | 34 | 1012.8 |
| 20260504171521 | 74 | 58 | 0.0 | 5.2 | 0.00 | 0.00 | 0.00 | 37 | 1012.9 |
| 20260504081546 | 50 | 358 | 0.0 | 1.7 | 0.00 | 0.00 | 0.00 | 65 | 1015.9 |